Location: Miami, Florida
(25.6830°N, 80.1700°W)
Time: 00:32:26
(UTC-04:00)

Tiangong 2 - Pass Details

Date: 28 April 2019
Orbit: 379 x 387 km, 42.8° (Epoch: 26 May)

Event Time Altitude Azimuth Distance (km) Brightness Sun altitude
Exits shadow 05:57:48 10° 204° (SSW) 1,370 3.4 -11.2°
Maximum altitude 06:00:36 32° 139° (SE) 676 2.5 -10.6°
Drops below altitude 10° 06:03:29 10° 73° (ENE) 1,400 5.5 -10.0°
Sets 06:05:40 0° 63° (ENE) 2,257 7.2 -9.6°
